EN

Hourly Weather Dzialosze

Today, 21 October, Wednesday

Time Temperature Precipitation Wind Pressure Humidity
00:00 +8°C° 0 mm 6 mps 744 mmHg 66%
01:00 +8°C° 0 mm 6 mps 744 mmHg 67%
02:00 +8°C° 0 mm 6 mps 744 mmHg 68%
03:00 +8°C° 0 mm 5 mps 744 mmHg 68%
04:00 +8°C° 0 mm 5 mps 743 mmHg 68%
05:00 +8°C° 0 mm 5 mps 743 mmHg 69%
06:00 +9°C° 0 mm 5 mps 743 mmHg 69%
07:00 +9°C° 0 mm 5 mps 743 mmHg 69%
08:00 +9°C° 0 mm 5 mps 743 mmHg 69%
09:00 +9°C° 0 mm 5 mps 743 mmHg 69%
10:00 +11°C° 0 mm 4 mps 744 mmHg 69%
11:00 +12°C° 0 mm 4 mps 743 mmHg 66%
12:00 +13°C° 0 mm 4 mps 743 mmHg 64%
13:00 +14°C° 0 mm 4 mps 743 mmHg 62%
14:00 +14°C° 0 mm 4 mps 743 mmHg 64%
15:00 +13°C° 0 mm 4 mps 743 mmHg 66%
16:00 +13°C° 0 mm 5 mps 742 mmHg 68%
17:00 +12°C° 0 mm 5 mps 742 mmHg 69%
18:00 +12°C° 0 mm 5 mps 742 mmHg 71%
19:00 +10°C° 0 mm 5 mps 743 mmHg 73%
20:00 +10°C° 0 mm 5 mps 743 mmHg 74%
21:00 +9°C° 0 mm 5 mps 743 mmHg 75%
22:00 +10°C° 0 mm 4 mps 743 mmHg 75%
23:00 +10°C° 0 mm 5 mps 743 mmHg 75%

Tomorrow, 22 October, Thursday

Time Temperature Precipitation Wind Pressure Humidity
00:00 +10°C° 0 mm 5 mps 743 mmHg 74%
01:00 +12°C° 0 mm 5 mps 744 mmHg 73%
02:00 +10°C° 0 mm 5 mps 743 mmHg 74%
03:00 +11°C° 0 mm 4 mps 743 mmHg 75%
04:00 +10°C° 0 mm 4 mps 743 mmHg 76%
05:00 +11°C° 0 mm 4 mps 744 mmHg 75%
06:00 +11°C° 0 mm 4 mps 744 mmHg 73%
07:00 +11°C° 0 mm 4 mps 744 mmHg 72%
08:00 +13°C° 0 mm 4 mps 744 mmHg 69%
09:00 +14°C° 0 mm 4 mps 744 mmHg 65%
10:00 +17°C° 0 mm 4 mps 745 mmHg 62%
11:00 +18°C° 0 mm 4 mps 744 mmHg 60%
12:00 +19°C° 0 mm 4 mps 744 mmHg 58%
13:00 +20°C° 0 mm 4 mps 744 mmHg 56%
14:00 +19°C° 0 mm 4 mps 744 mmHg 61%
15:00 +18°C° 0 mm 3 mps 744 mmHg 66%
16:00 +17°C° 0 mm 3 mps 744 mmHg 70%
17:00 +16°C° 0 mm 3 mps 744 mmHg 73%
18:00 +16°C° 0 mm 3 mps 744 mmHg 75%
19:00 +14°C° 0 mm 3 mps 744 mmHg 77%
20:00 +14°C° 0 mm 3 mps 744 mmHg 78%
21:00 +13°C° 0 mm 4 mps 744 mmHg 78%
22:00 +13°C° 0 mm 4 mps 744 mmHg 79%
23:00 +13°C° 0 mm 4 mps 744 mmHg 78%

Day after tomorrow, 23 October, Friday

Time Temperature Precipitation Wind Pressure Humidity
00:00 +13°C° 0 mm 3 mps 744 mmHg 78%
01:00 +13°C° 0 mm 3 mps 744 mmHg 77%
02:00 +13°C° 0 mm 3 mps 743 mmHg 76%
03:00 +13°C° 0 mm 3 mps 743 mmHg 75%
04:00 +13°C° 0 mm 3 mps 743 mmHg 74%
05:00 +13°C° 0 mm 4 mps 743 mmHg 74%
06:00 +13°C° 0 mm 4 mps 743 mmHg 74%
07:00 +13°C° 0 mm 4 mps 742 mmHg 73%
08:00 +13°C° 0 mm 4 mps 742 mmHg 72%
09:00 +14°C° 0 mm 4 mps 742 mmHg 70%
10:00 +15°C° 0 mm 4 mps 742 mmHg 68%
11:00 +17°C° 0 mm 4 mps 742 mmHg 68%
12:00 +17°C° 0 mm 3 mps 742 mmHg 67%
13:00 +18°C° 0 mm 3 mps 742 mmHg 67%
14:00 +18°C° 0 mm 3 mps 742 mmHg 69%
15:00 +17°C° 0 mm 2 mps 741 mmHg 72%
16:00 +17°C° 0 mm 2 mps 741 mmHg 75%
17:00 +16°C° 0 mm 2 mps 741 mmHg 78%
18:00 +15°C° 0 mm 2 mps 741 mmHg 81%
19:00 +15°C° 0 mm 2 mps 741 mmHg 85%
20:00 +15°C° 0.1 mm 2 mps 741 mmHg 85%
21:00 +14°C° 0.1 mm 3 mps 741 mmHg 85%
22:00 +14°C° 0.1 mm 3 mps 741 mmHg 85%
23:00 +13°C° 1 mm 4 mps 740 mmHg 88%

24 October, Saturday

Time Temperature Precipitation Wind Pressure Humidity
00:00 +13°C° 1 mm 4 mps 740 mmHg 91%
01:00 +13°C° 1 mm 4 mps 740 mmHg 94%
02:00 +13°C° 0.4 mm 4 mps 740 mmHg 93%
03:00 +13°C° 0.4 mm 4 mps 740 mmHg 92%
04:00 +13°C° 0.4 mm 4 mps 740 mmHg 91%
05:00 +13°C° 0.1 mm 5 mps 740 mmHg 88%
06:00 +13°C° 0.1 mm 6 mps 740 mmHg 86%
07:00 +11°C° 0.1 mm 7 mps 740 mmHg 83%
08:00 +12°C° 0.1 mm 7 mps 741 mmHg 78%
09:00 +12°C° 0.1 mm 8 mps 741 mmHg 74%
10:00 +12°C° 0.1 mm 9 mps 742 mmHg 69%
11:00 +11°C° 0.1 mm 9 mps 742 mmHg 70%
12:00 +10°C° 0.1 mm 9 mps 743 mmHg 70%
13:00 +10°C° 0.1 mm 9 mps 743 mmHg 71%
14:00 +9°C° 0 mm 8 mps 743 mmHg 69%
15:00 +9°C° 0 mm 7 mps 744 mmHg 67%
16:00 +9°C° 0 mm 7 mps 744 mmHg 65%
17:00 +8°C° 0 mm 6 mps 745 mmHg 68%
18:00 +8°C° 0 mm 5 mps 745 mmHg 71%
19:00 +7°C° 0 mm 4 mps 746 mmHg 74%
20:00 +6°C° 0 mm 4 mps 746 mmHg 76%
21:00 +6°C° 0 mm 4 mps 747 mmHg 78%
22:00 +7°C° 0 mm 3 mps 747 mmHg 81%
23:00 +5°C° 0 mm 3 mps 747 mmHg 82%

25 October, Sunday

Time Temperature Precipitation Wind Pressure Humidity
00:00 +6°C° 0 mm 2 mps 747 mmHg 84%
01:00 +6°C° 0 mm 2 mps 747 mmHg 85%
02:00 +5°C° 0 mm 2 mps 747 mmHg 85%
03:00 +5°C° 0 mm 2 mps 747 mmHg 85%
04:00 +5°C° 0 mm 2 mps 746 mmHg 84%
05:00 +5°C° 0 mm 2 mps 746 mmHg 83%
06:00 +5°C° 0 mm 2 mps 746 mmHg 81%
07:00 +5°C° 0 mm 2 mps 746 mmHg 80%
08:00 +7°C° 0 mm 2 mps 746 mmHg 74%
09:00 +8°C° 0 mm 3 mps 746 mmHg 67%
10:00 +10°C° 0 mm 3 mps 746 mmHg 61%
11:00 +11°C° 0 mm 3 mps 746 mmHg 60%
12:00 +12°C° 0 mm 3 mps 746 mmHg 60%
13:00 +13°C° 0 mm 3 mps 746 mmHg 59%
14:00 +14°C° 0 mm 2 mps 745 mmHg 62%
15:00 +13°C° 0 mm 2 mps 745 mmHg 66%
16:00 +13°C° 0 mm 2 mps 745 mmHg 69%
17:00 +12°C° 0 mm 2 mps 745 mmHg 72%
18:00 +10°C° 0 mm 3 mps 745 mmHg 75%
19:00 +9°C° 0 mm 3 mps 745 mmHg 79%
20:00 +9°C° 0 mm 3 mps 745 mmHg 81%
21:00 +9°C° 0 mm 3 mps 745 mmHg 84%
22:00 +8°C° 0 mm 3 mps 745 mmHg 86%
23:00 +8°C° 0 mm 3 mps 744 mmHg 84%

26 October, Monday

Time Temperature Precipitation Wind Pressure Humidity
00:00 +8°C° 0 mm 3 mps 744 mmHg 83%
01:00 +8°C° 0 mm 3 mps 744 mmHg 81%
02:00 +8°C° 0 mm 3 mps 744 mmHg 81%
03:00 +7°C° 0 mm 3 mps 743 mmHg 82%
04:00 +7°C° 0 mm 3 mps 743 mmHg 83%
05:00 +7°C° 0 mm 3 mps 743 mmHg 83%
06:00 +6°C° 0 mm 4 mps 743 mmHg 83%
07:00 +6°C° 0 mm 4 mps 743 mmHg 83%
08:00 +8°C° 0 mm 4 mps 743 mmHg 76%
09:00 +10°C° 0 mm 5 mps 743 mmHg 69%
10:00 +13°C° 0 mm 5 mps 743 mmHg 62%
11:00 +13°C° 0 mm 5 mps 743 mmHg 59%
12:00 +14°C° 0 mm 5 mps 743 mmHg 57%
13:00 +15°C° 0 mm 5 mps 743 mmHg 54%
14:00 +14°C° 0 mm 4 mps 742 mmHg 58%
15:00 +14°C° 0 mm 4 mps 742 mmHg 61%
16:00 +13°C° 0 mm 3 mps 742 mmHg 65%
17:00 +12°C° 0 mm 3 mps 743 mmHg 68%
18:00 +11°C° 0 mm 3 mps 743 mmHg 71%
19:00 +10°C° 0 mm 3 mps 743 mmHg 74%
20:00 +10°C° 0 mm 2 mps 744 mmHg 76%
21:00 +9°C° 0 mm 2 mps 744 mmHg 78%
22:00 +9°C° 0 mm 2 mps 744 mmHg 80%
23:00 +8°C° 0 mm 2 mps 745 mmHg 80%

27 October, Tuesday

Time Temperature Precipitation Wind Pressure Humidity
00:00 +8°C° 0 mm 2 mps 745 mmHg 80%
01:00 +8°C° 0 mm 2 mps 745 mmHg 80%
02:00 +8°C° 0 mm 2 mps 745 mmHg 80%
03:00 +7°C° 0 mm 2 mps 746 mmHg 80%
04:00 +7°C° 0 mm 2 mps 746 mmHg 80%
05:00 +7°C° 0 mm 2 mps 746 mmHg 82%
06:00 +7°C° 0 mm 2 mps 747 mmHg 84%
07:00 +7°C° 0 mm 2 mps 747 mmHg 86%
08:00 +8°C° 0 mm 2 mps 747 mmHg 84%
09:00 +9°C° 0 mm 2 mps 748 mmHg 82%
10:00 +10°C° 0 mm 2 mps 748 mmHg 81%
11:00 +12°C° 0 mm 2 mps 748 mmHg 78%
12:00 +13°C° 0 mm 2 mps 748 mmHg 75%
13:00 +14°C° 0 mm 2 mps 748 mmHg 72%
14:00 +13°C° 0 mm 2 mps 748 mmHg 75%
15:00 +13°C° 0 mm 1 mps 748 mmHg 78%
16:00 +12°C° 0 mm 1 mps 748 mmHg 81%
17:00 +11°C° 0 mm 1 mps 748 mmHg 84%
18:00 +10°C° 0 mm 0 mps 749 mmHg 87%
19:00 +9°C° 0 mm 0 mps 749 mmHg 90%
20:00 +9°C° 0 mm 0 mps 749 mmHg 90%
21:00 +8°C° 0 mm 0 mps 749 mmHg 90%
22:00 +8°C° 0 mm 0 mps 749 mmHg 90%
23:00 +9°C° 0 mm 1 mps 749 mmHg 90%
Show more